Regional Weather Roundup
Issued by NWS Jackson, KY

Home | Current Version | Previous Version | Graphics & Text | Print | Product List | Glossary On
Versions: 1 2 3 4 5 6 7 8 9 10 11 12 13 14 15 16 17 18 19 20 21 22 23 24 25 26 27 28 29 30 31 32 33 34 35 36 37 38 39 40 41 42 43 44 45 46 47 48 49 50
000
ASUS43 KJKL 020405
RWRJKL

EAST KENTUCKY HOURLY WEATHER ROUNDUP
NATIONAL WEATHER SERVICE JACKSON KY
1200 AM EDT THU OCT 02 2014

NOTE: "FAIR" INDICATES FEW OR NO CLOUDS BELOW 12,000 FEET WITH
NO SIGNIFICANT WEATHER AND/OR OBSTRUCTIONS TO VISIBILITY.

* THESE REPORTS ARE NOT UNDER NWS QUALITY CONTROL AND MAY NOT
  REPORT WEATHER SUCH AS PRECIPITATION AND FOG.

KYZ079-080-083-085-087-088-110-112-115-119-120-020500
...EASTERN KENTUCKY...

CITY           SKY/WX    TMP DP  RH WIND       PRES   REMARKS
JACKSON        CLEAR     66  58  75 SE5       30.05S
LONDON         CLEAR     62  58  86 CALM      30.05S
SOMERSET*      CLEAR     59  59 100 CALM      30.04F
MONTICELLO*    CLEAR     57  55  93 CALM      30.04S
MIDDLESBORO*   CLEAR     56  56  98 CALM      30.07S
HARLAN APT*    CLEAR     57  57 100 E3        30.08S
BLACK MTN*       N/A     57  52  82 S1          N/A
PIKEVILLE APT* CLEAR     63  61  94 SE3       30.06F
BIG SANDY*     CLEAR     65  61  88 S3        30.05S
MOREHEAD APT*  CLOUDY    64  61  88 CALM      30.06R
$$

KYZ035-036-041-042-044-050-067-078-099-020500
...CENTRAL KENTUCKY...

CITY           SKY/WX    TMP DP  RH WIND       PRES   REMARKS
MT STERLING*   CLEAR     59  59 100 S3        30.05S FOG
FLEMING/MASON* CLEAR     60  57  91 SE3       30.04S
DANVILLE*      CLEAR     57  55  94 CALM      30.04S
RICHMOND*      CLEAR     63  59  88 SE3       30.03S
LEXINGTON      CLEAR     68  59  73 SE7       30.02S
FRANKFORT      CLEAR     66  58  75 SE3       30.00S
$$

KYZ091>093-OHZ055-061-077-WVZ005-015-034-035-042-020500
...SOUTHERN OHIO/WEST VIRGINIA...

CITY           SKY/WX    TMP DP  RH WIND       PRES   REMARKS
COVINGTON      PTCLDY    64  50  60 CALM      30.01S
COLUMBUS       CLEAR     54  50  86 CALM      30.04S
DAYTON         CLEAR     57  49  74 E5        30.03S
WILMINGTON     CLEAR     54  44  69 SE7       30.03S
HUNTINGTON     CLEAR     60  59  96 E3        30.03S FOG
CHARLESTON     PTCLDY    56  55  97 CALM      30.05F FOG
PINEVILLE*     CLEAR     56  56 100 MISG      30.14S FOG
BECKLEY        CLEAR     56  52  86 CALM      30.12S
BLUEFIELD      CLEAR     61  52  72 CALM      30.14S
$$

VAZ002-007-008-TNZ017-027-036-066-071-020500
...SOUTHWEST VIRGINIA/EAST TENNESSEE...

CITY           SKY/WX    TMP DP  RH WIND       PRES   REMARKS
WISE*          CLEAR     63  52  67 CALM      30.13S
JONESVILLE*    CLEAR     55  55 100 CALM      30.09S
ABINGDON*      CLEAR     59  56  91 CALM      30.10S
BRISTOL        CLEAR     56  52  86 CALM      30.08S
KNOXVILLE      CLEAR     65  56  72 CALM      30.02F
OAK RIDGE      CLEAR     60  57  89 CALM      30.05S
CROSSVILLE     CLEAR     62  56  80 CALM      30.07F
NASHVILLE      CLEAR     70  58  65 S3        29.98S
$$

...KEY TO REMARKS...
VSB - VISIBILITY IN MILES
WCI - WIND CHILL INDEX
HX  - HEAT INDEX

$$



USA.gov is the U.S. government's official web portal to all federal, state and local government web resources and services.